Tracking 19199 objects as of 25-Jun-2018
HD Live streaming from Space Station
objects crossing your sky now

FENGYUN 1C DEB

Track FENGYUN 1C DEB now!
10-day predictions


NORAD ID: 31384
Int'l Code: 1999-025BSQ
Perigee: 642.2 km
Apogee: 1,384.4 km
Inclination: 98.5 °
Period: 105.3 minutes
Semi major axis: 7384 km
RCS: 0.0143 m2 (small)
Launch date: May 10, 1999
Source: People's Republic of China (PRC)
Launch site: Taiyaun Space Center, China (TSC)

Note: This is SATELLITE DEBRIS
aabbcc
Your satellite tracking list
Your tracking list is empty




NASA's NSSDC Master Catalog

Two Line Element Set (TLE):
1 31384U 99025BSQ 18175.61753927 +.00000578 +00000-0 +29868-3 0  9992
2 31384 098.4725 050.3735 0502587 190.9720 198.7764 13.68166433555956
Source of the keplerian elements: AFSPC